User: anonymous   Login
Location: Unspecified
(0.0000°N, 0.0000°E)
Time: 18:26:11
(UTC+00:00)
Language:

AO-7 - Orbit

View from above orbital plane
View from above orbital plane
View from above satellite
View from above satellite

Ground track
Ground track

The orbit data is extracted from the following two-line orbital elements,

1  7530U 74089B   17080.85114510 -.00000019 +00000-0 +15847-3 0  9993
2  7530 101.6204 051.2928 0012282 130.2983 282.9435 12.53626084937682
Epoch (UTC): 21 March 2017 20:25:38
Eccentricity: 0.0012282
inclination: 101.6204°
perigee height: 1440 km
apogee height: 1459 km
right ascension of ascending node: 51.2928°
argument of perigee: 130.2983°
revolutions per day: 12.53626084
mean anomaly at epoch: 282.9435°
orbit number at epoch: 93768

The dashed part of the orbit path shows where the satellite is in the earth's shadow,  

DLR